Temp
18 18 18 18 17 17 17 17 16 16 16 16 16 16 16 16 16 15 15 15 14 13 13 13 12 12 12 11 11 11 10 10 9 9 9 9 8 8 8 8 8 7 7 7 7 7 7 6 7 7 6 6 6 6 6 6 5 5 6 6 6 6 6 6 6 6 6 6 5 5 6 6 6 5 5 5 5 5 5 6 6 6 5 5 5
18 18 18 18 17 17 17 17 16 16 16 16 15 15 15 15 15 15 15 15 14 14 14 13 13 12 12 12 12 11 11 10 9 9 9 9 9 9 9 8 8 7 7 7 7 7 7 6 6 6 6 6 6 6 6 5 5 5 5 6 6 6 6 6 6 6 6 6 5 5 6 6 6 5 5 5 5 5 5 6 6 6 5 5 5
18 18 18 18 17 17 17 16 16 16 16 15 15 15 15 15 15 15 15 14 14 14 14 13 13 12 12 12 12 11 10 10 10 9 9 9 9 9 9 8 8 7 7 7 7 7 6 6 6 6 6 6 6 6 6 6 5 5 5 6 6 6 6 6 6 6 5 5 5 5 6 6 5 5 5 5 5 5 5 5 6 6 5 5 5
18 18 18 18 17 17 17 16 16 16 16 15 15 15 15 15 14 14 14 14 14 14 13 13 12 12 12 12 11 11 10 10 10 9 9 9 9 9 9 9 8 8 7 7 7 7 6 6 6 6 6 6 6 6 6 5 5 5 6 6 5 6 6 6 6 6 5 5 5 5 5 5 5 5 5 5 5 5 5 5 5 6 5 5 5
18 18 18 18 17 17 17 16 16 16 15 15 15 15 15 14 14 14 14 14 13 13 13 13 12 12 12 12 11 11 11 10 10 10 10 9 9 9 9 9 8 8 8 7 7 7 7 7 6 6 6 6 6 6 6 5 5 5 6 5 5 6 6 6 6 6 5 5 5 5 5 5 5 5 5 5 5 5 5 5 5 6 5 5 5
18 18 18 18 17 17 17 16 16 16 15 15 15 14 14 14 14 14 14 13 13 13 13 13 12 12 12 12 11 11 11 10 10 10 10 10 9 9 9 9 9 8 8 7 7 7 7 7 6 6 6 6 6 6 5 5 5 5 6 5 5 6 6 6 6 6 5 5 5 5 5 5 5 5 5 5 5 5 5 5 5 5 5 5 5
18 18 18 17 17 17 16 16 16 15 15 15 14 14 14 14 14 13 13 13 13 13 13 13 12 12 12 12 11 11 11 10 10 10 10 10 10 9 9 9 9 8 8 7 7 7 7 7 6 6 6 6 6 6 5 5 5 5 6 5 5 5 6 6 6 6 5 5 5 5 5 5 5 5 5 5 5 5 5 5 5 5 5 4 4
18 18 18 17 17 16 16 16 15 15 15 14 14 14 14 14 14 14 13 13 13 13 13 13 13 12 12 11 11 11 10 10 10 10 10 10 10 9 9 9 9 9 8 7 7 7 7 6 6 6 6 6 6 6 5 5 5 5 5 5 5 5 6 6 6 6 6 5 5 5 5 5 5 5 5 5 5 5 5 5 5 5 5 4 3
18 18 17 17 16 16 15 15 15 15 15 15 14 14 14 14 14 14 13 13 13 13 13 12 12 12 11 11 11 11 11 11 11 10 10 10 10 9 8 8 9 9 8 7 7 7 6 6 6 6 6 6 6 6 5 5 5 5 5 5 5 5 5 5 5 5 6 6 5 5 5 5 5 5 5 4 4 4 4 5 5 4 5 5 4
18 17 17 16 16 15 15 15 15 15 15 14 14 14 14 14 14 13 13 13 13 12 12 12 12 12 11 11 11 11 11 11 11 10 10 10 10 9 8 8 8 8 8 7 7 7 6 6 6 6 6 6 6 6 5 5 5 5 5 5 5 5 5 5 5 5 5 6 5 5 6 5 5 5 5 4 3 4 5 5 4 4 5 5 4
17 16 16 15 15 15 15 15 15 14 14 14 14 14 13 13 13 13 12 12 12 12 12 12 12 12 11 11 11 11 11 11 11 10 10 10 9 9 8 8 8 8 7 7 7 7 6 6 6 6 6 6 6 6 5 5 5 5 5 5 5 5 5 5 5 5 5 5 5 5 5 5 5 5 5 4 4 4 5 5 5 5 5 4 3
16 16 15 15 15 15 15 15 14 14 14 14 14 14 13 13 13 12 12 12 12 12 12 12 11 11 11 11 11 10 10 10 10 10 10 9 9 9 8 8 8 7 7 7 7 7 6 6 6 6 6 5 5 5 5 5 5 5 5 5 5 5 5 5 5 5 5 5 5 5 5 5 5 5 5 5 4 4 4 5 5 5 5 4 2
15 15 15 15 15 15 15 15 15 14 14 14 14 13 13 13 13 12 12 12 12 12 11 11 11 11 10 10 10 10 10 10 10 10 10 9 9 9 8 8 8 7 7 7 7 7 6 6 6 6 5 5 5 5 5 5 5 5 5 5 5 5 5 5 5 5 5 5 5 5 5 5 5 5 5 5 5 5 5 5 4 4 4 3 2
15 15 15 15 15 15 15 15 15 14 14 14 13 13 13 12 12 12 12 12 11 11 11 11 10 10 10 10 10 10 10 10 10 10 10 9 9 9 8 8 7 7 7 7 6 7 6 6 6 6 5 5 5 5 5 5 5 5 5 5 5 5 5 5 5 5 5 5 5 5 5 5 5 5 5 5 5 5 5 4 4 4 4 3 3
15 15 15 15 15 15 15 15 15 14 13 13 13 12 12 12 12 11 11 11 11 11 10 10 10 10 10 10 10 10 10 10 10 10 10 9 9 9 8 8 7 7 7 6 6 6 6 6 6 5 5 5 5 5 5 5 5 5 5 5 5 5 5 5 5 5 5 5 5 5 5 5 5 5 5 5 5 5 4 4 4 4 4 3 3
15 15 15 15 15 15 15 15 14 13 12 12 12 12 11 11 11 11 11 11 10 10 10 10 10 10 10 10 10 10 10 10 10 10 9 9 9 8 8 8 7 7 7 6 6 6 6 6 5 5 5 5 5 5 5 5 5 5 5 5 5 5 5 5 5 5 5 5 5 5 5 5 5 5 5 5 5 5 4 4 4 4 4 3 3
15 15 15 15 15 14 14 13 12 12 12 11 11 11 11 10 10 10 10 10 10 10 10 10 10 10 10 10 10 10 10 10 10 10 9 9 9 8 8 8 7 7 7 7 6 6 6 5 5 5 5 5 5 5 5 5 5 5 5 5 5 5 5 5 5 5 5 5 5 5 5 5 5 5 5 5 5 5 5 4 4 4 4 3 3
16 15 15 14 14 13 13 12 12 11 11 11 10 10 10 10 10 10 10 10 10 10 10 10 10 10 10 10 10 10 10 10 10 9 9 9 9 8 8 8 7 7 7 7 7 6 6 6 5 5 5 5 5 5 5 5 5 5 5 5 5 5 5 5 5 5 5 5 5 5 5 5 5 5 5 5 5 5 5 5 4 4 4 4 3
15 14 14 14 13 13 12 12 11 11 10 10 10 10 10 10 10 10 10 10 10 10 10 10 10 10 10 10 10 10 10 10 9 9 9 9 8 8 8 8 7 7 7 6 6 6 6 6 5 5 5 5 4 5 5 5 5 5 5 5 5 5 5 5 5 5 5 5 5 5 5 5 5 5 5 5 5 4 5 5 5 5 5 4 4
14 14 14 13 13 12 12 11 11 10 10 10 10 10 9 9 9 9 9 9 9 9 9 9 9 9 9 10 10 10 10 9 9 9 9 9 8 8 8 8 7 7 7 6 6 6 6 5 5 5 5 5 4 4 5 5 5 5 5 5 5 5 5 5 5 5 5 5 5 5 5 5 5 5 4 5 4 4 5 5 5 5 5 4 4
14 13 13 13 12 12 11 10 10 10 10 9 9 9 9 9 9 9 8 9 9 9 9 9 9 9 9 9 9 9 9 9 9 8 8 8 8 8 8 7 7 7 6 6 6 6 6 5 5 5 4 4 4 5 5 5 5 5 5 5 5 5 5 5 5 5 5 5 4 5 5 5 5 5 5 5 5 4 4 4 4 5 5 5 4
13 13 12 12 12 11 10 10 10 9 9 9 9 9 8 8 8 8 8 8 8 8 8 9 9 9 9 9 9 9 9 9 8 8 8 8 8 8 8 7 7 6 6 5 6 6 6 5 5 5 4 4 5 5 5 5 5 5 5 5 5 5 5 5 5 5 5 5 4 5 5 5 5 5 5 5 5 4 4 4 4 4 4 4 4
13 12 12 11 10 10 10 9 9 9 8 8 8 8 8 8 8 8 8 8 8 8 8 8 8 8 8 8 8 8 8 8 8 7 7 7 8 8 8 7 6 6 5 5 5 6 6 5 5 4 4 4 5 5 5 5 5 5 5 5 5 5 5 5 5 5 5 5 5 5 5 5 5 5 5 5 5 4 4 4 4 4 4 4 4
12 11 11 10 9 9 9 9 8 8 8 8 8 8 7 7 7 7 7 7 7 6 6 6 7 7 7 7 7 7 7 7 7 7 7 7 7 7 7 7 6 6 5 5 5 5 5 5 5 4 4 5 5 4 4 4 4 5 5 4 5 5 5 5 5 5 4 4 5 5 5 5 5 5 5 5 5 4 4 4 4 4 5 5 4
11 10 10 9 9 9 8 8 8 8 7 7 7 7 6 6 6 6 6 6 5 5 5 5 5 5 5 5 6 6 6 6 7 7 7 6 6 7 7 7 6 6 5 5 5 5 5 5 4 4 4 5 5 4 4 4 4 5 4 4 5 5 5 5 5 5 4 4 4 4 5 5 5 5 5 5 5 4 4 4 4 4 4 5 4
10 9 9 8 8 8 8 7 7 7 7 6 6 6 5 5 5 5 5 4 4 4 3 3 3 3 2 3 3 4 5 5 6 6 6 6 6 6 6 6 6 5 5 5 5 5 5 5 4 4 5 5 4 4 4 4 5 5 5 5 5 5 5 5 5 5 5 5 5 4 5 5 5 5 5 5 5 5 4 4 4 4 4 5 5
9 9 8 8 8 7 7 7 7 6 6 6 6 5 5 5 4 4 4 3 2 2 2 1 1 1 1 1 2 2 3 4 5 5 6 6 6 6 6 6 6 5 5 5 5 4 5 4 4 4 4 4 4 4 4 5 5 5 5 5 5 4 4 5 5 5 5 5 4 4 4 4 5 5 5 5 5 5 4 4 4 4 4 5 5
8 8 8 7 7 7 7 7 6 6 6 6 5 5 4 4 4 3 3 2 2 2 1 1 1 1 1 1 1 2 2 4 4 5 5 6 6 6 6 6 6 5 5 5 4 4 4 4 4 4 4 4 4 4 4 5 5 5 5 5 4 4 5 5 5 4 4 4 4 4 4 4 4 5 5 4 5 5 4 4 5 4 4 5 5
8 7 7 7 7 7 7 6 6 6 6 5 5 4 4 4 3 3 3 2 2 2 1 1 1 1 1 1 1 1 2 3 3 4 5 5 6 6 6 6 6 5 5 5 4 4 4 4 4 4 4 4 4 4 5 5 5 5 4 4 4 5 5 5 5 4 4 4 4 4 4 4 4 4 4 4 4 4 4 4 5 5 4 5 5
7 7 7 7 7 6 6 6 6 5 5 5 4 4 4 3 3 3 2 2 2 2 1 1 1 1 1 1 1 1 1 1 2 4 5 5 6 6 6 5 5 5 4 4 4 4 4 4 4 4 4 4 4 4 5 5 5 5 4 4 5 5 5 5 4 4 4 4 4 4 4 4 4 4 4 4 4 4 4 4 4 4 5 5 4
7 7 7 7 7 6 6 6 5 5 5 4 4 4 3 3 3 2 2 2 2 1 1 1 1 1 1 1 1 1 2 2 2 4 4 5 5 5 5 5 5 5 4 4 3 4 4 4 4 4 3 4 4 5 5 5 5 5 5 5 5 5 5 4 4 4 4 4 4 4 4 4 4 4 4 4 4 4 4 4 4 4 4 5 4
7 7 7 7 7 6 6 5 5 4 4 4 4 3 3 3 2 2 2 2 2 1 1 1 1 1 0 0 1 1 2 2 2 3 4 4 5 5 5 5 5 5 4 3 3 3 4 4 4 4 3 4 5 5 5 4 5 5 4 5 5 5 4 4 4 4 4 4 4 4 4 4 4 4 4 4 4 4 3 4 4 4 4 4 4
7 7 7 6 6 6 5 5 4 4 4 3 3 3 2 2 2 1 1 1 1 1 1 1 1 1 0 0 0 0 1 2 2 3 3 4 4 4 5 5 5 4 4 3 3 3 3 3 3 3 4 4 5 5 5 5 5 4 4 5 5 4 4 4 4 4 4 4 4 4 4 4 4 4 4 4 4 4 4 3 3 3 3 3 3
7 7 6 6 5 5 4 4 4 4 3 3 2 2 2 1 1 1 1 1 1 2 2 1 1 1 0 -0 -0 0 1 1 2 3 3 4 4 4 4 5 4 4 3 3 3 3 3 3 3 3 4 4 5 5 5 5 5 4 4 5 5 4 4 4 4 5 4 4 4 4 4 4 4 4 4 4 4 4 4 3 3 3 3 3 2
7 7 6 5 5 4 4 4 4 3 3 2 2 2 1 1 1 1 1 1 1 2 2 1 1 0 0 -0 -0 0 1 1 2 2 3 3 3 3 4 4 4 3 3 2 2 2 3 3 3 3 4 4 4 4 4 4 4 4 5 5 5 5 5 4 4 5 5 4 4 4 4 4 4 4 4 4 4 4 4 3 3 2 2 2 2
6 6 5 5 5 4 4 4 3 3 3 2 2 1 1 1 1 1 1 1 1 1 1 1 0 -0 -0 -0 -0 0 1 1 1 2 2 3 3 3 3 3 3 3 3 2 2 2 2 3 3 3 4 4 4 4 4 4 4 4 5 5 5 5 5 5 4 5 5 5 4 4 4 4 4 4 4 4 4 4 3 3 2 2 2 2 2
5 5 5 5 4 4 4 3 3 3 2 2 1 1 1 1 1 1 1 1 0 -0 0 0 0 -0 -1 -1 0 1 1 1 1 1 2 2 2 3 2 2 2 2 3 2 2 2 2 3 3 4 4 4 4 4 4 4 4 4 5 5 5 5 5 5 5 5 5 5 4 4 4 4 4 4 4 4 4 3 3 3 2 2 1 1 1
5 5 5 5 4 4 3 3 3 2 2 1 1 1 1 1 1 1 1 1 -0 -1 -1 -1 -0 -1 -1 -1 -0 1 1 1 1 1 1 1 2 2 1 1 2 2 2 2 2 2 2 3 3 3 4 3 3 4 4 4 4 4 5 5 5 5 5 5 5 5 5 4 4 4 4 4 4 4 4 4 4 3 3 3 3 2 1 1 1
5 5 5 4 4 3 3 3 3 2 1 1 0 0 0 0 1 1 0 -0 -1 -1 -2 -1 -1 -1 -1 -1 -1 0 1 1 1 1 1 1 1 1 1 1 2 2 2 2 2 2 2 3 3 3 3 3 3 3 4 4 4 4 5 5 5 5 5 5 5 5 5 4 4 5 4 4 4 4 4 4 4 4 3 3 3 3 2 1 1
5 4 4 4 4 3 3 3 2 1 1 0 -0 -1 -1 -0 -0 -0 -1 -1 -1 -1 -2 -1 -1 -1 -1 -1 -1 -0 0 1 1 1 1 1 1 1 1 1 1 1 2 2 2 2 2 2 3 3 3 3 3 3 4 4 4 4 5 5 5 5 5 5 5 5 5 4 5 5 4 4 4 4 4 4 4 4 4 4 3 3 3 3 2
4 4 4 4 3 3 3 2 1 1 0 -0 -1 -1 -1 -1 -1 -1 -1 -1 -1 -1 -1 -1 -1 -1 -1 -1 -1 -1 -1 -0 0 1 1 1 1 1 1 1 1 1 1 2 2 2 2 2 3 3 3 3 3 3 3 4 4 4 5 5 5 5 5 5 5 5 5 5 5 5 4 4 4 4 4 4 4 4 4 4 4 3 3 3 3
4 4 4 3 3 3 2 1 1 0 -0 -1 -1 -1 -0 -1 -0 -0 -0 -1 -1 -1 -1 -1 -1 -1 -1 -1 -1 -1 -1 -0 -0 0 1 1 1 1 2 2 1 1 1 2 2 2 2 2 3 3 3 3 3 3 4 4 4 4 5 5 5 5 5 5 5 5 5 5 5 4 4 4 4 4 4 4 4 4 4 4 4 4 3 3 3
4 4 3 3 3 2 1 1 1 0 -0 -1 -0 0 0 -0 0 0 -0 -1 -1 -1 -1 -1 -1 -1 -1 -1 -1 -1 -1 -1 -0 0 0 1 1 1 2 2 2 1 1 2 2 2 2 2 3 3 3 3 3 3 4 4 4 4 4 5 5 5 5 5 5 5 5 5 5 4 4 4 4 4 4 4 4 4 4 4 4 4 4 3 3
4 3 3 3 2 2 1 1 0 -0 -0 -0 0 0 0 0 0 0 -0 -1 -1 -1 -1 -1 -1 -2 -1 -2 -2 -1 -0 -0 -0 0 0 1 1 2 2 2 2 2 1 1 2 2 2 2 2 2 3 3 3 3 4 4 4 4 5 5 5 5 5 5 5 5 5 4 4 4 4 4 3 3 4 4 4 4 4 4 4 4 4 4 3
3 3 3 2 2 1 1 0 0 -0 0 0 1 1 0 1 1 0 -0 -0 -0 -0 -1 -1 -1 -2 -1 -2 -2 -1 -0 0 0 0 1 1 1 2 2 2 2 2 1 1 1 2 2 2 2 2 3 2 3 3 4 4 4 4 5 5 5 5 5 5 5 5 4 4 4 4 4 4 4 3 3 4 4 4 4 4 4 4 4 4 4
3 3 3 2 2 1 1 0 0 0 0 0 0 0 0 1 1 0 -0 -0 -0 -0 -1 -1 -1 -1 -1 -1 -1 -1 -0 -0 0 0 1 1 2 2 2 2 2 1 1 1 1 2 2 2 2 2 2 2 3 3 4 4 4 4 5 5 5 5 5 5 5 5 5 4 4 4 4 4 4 3 3 3 4 3 3 3 4 4 4 4 4
3 3 2 2 1 1 1 0 0 0 0 0 -0 -0 0 0 -0 -0 -0 -0 -0 -0 -1 -1 -1 -1 -1 -1 -1 -1 -0 -0 0 1 1 2 2 2 2 2 1 1 1 1 1 2 2 2 2 2 2 2 3 3 4 4 4 5 5 5 5 5 5 5 5 5 5 5 4 4 4 4 4 3 3 3 3 3 3 3 3 3 3 3 3
3 2 2 1 2 1 1 0 0 0 0 -0 -0 -0 -0 -1 -1 -1 -1 -1 -0 -0 -1 -1 -1 -1 -1 -1 -1 -0 -0 0 1 1 2 2 2 3 3 2 1 1 1 1 1 2 2 2 2 2 2 2 3 3 4 4 4 5 5 5 5 5 5 5 5 5 5 4 4 4 4 4 4 4 3 3 3 3 3 3 3 3 3 3 3
2 2 2 2 2 2 1 0 0 0 -0 -1 -0 -1 -1 -1 -1 -1 -1 -1 -1 -0 -1 -1 -1 -1 -1 -1 -0 -0 1 1 2 2 2 2 2 3 3 2 2 1 1 1 1 1 1 2 2 2 2 2 3 3 4 4 4 5 5 5 5 5 5 5 5 5 4 4 4 4 4 4 4 4 3 3 3 3 3 3 3 3 3 3 3
2 2 2 2 2 1 1 0 0 -0 -1 -1 -0 -0 -1 -1 -1 -1 -1 -1 -1 -0 -1 -1 -1 -1 -1 -1 -0 0 1 2 2 2 2 2 2 2 3 3 2 1 1 1 1 1 2 2 2 2 2 2 3 3 4 4 4 5 5 5 5 5 5 4 4 4 4 4 4 4 4 4 4 4 4 3 3 3 3 3 3 3 3 3 3
2 2 2 2 2 1 1 0 -0 -0 -1 -1 -1 -0 -1 -1 -1 -1 -1 -1 -0 -0 -0 -1 -1 -1 -1 -0 0 1 1 2 2 2 2 2 2 2 2 2 2 1 1 1 1 1 2 2 2 2 2 2 3 3 4 4 4 4 4 4 4 4 4 4 4 4 4 4 3 3 3 3 3 3 3 3 3 3 3 3 3 3 3 3 3
Height
1481 1482 1482 1482 1482 1481 1481 1481 1481 1480 1480 1479 1479 1478 1478 1477 1476 1475 1474 1473 1473 1472 1472 1471 1470 1469 1468 1467 1466 1465 1464 1463 1463 1462 1461 1461 1461 1459 1458 1457 1457 1456 1455 1455 1453 1452 1452 1452 1452 1451 1450 1448 1447 1446 1445 1444 1443 1441 1440 1439 1437 1436 1435 1433 1432 1430 1429 1427 1425 1423 1421 1419 1417 1414 1412 1409 1405 1402 1399 1396 1393 1390 1385 1380 1375
1480 1481 1481 1480 1480 1480 1480 1480 1480 1479 1479 1478 1478 1477 1476 1476 1474 1473 1472 1472 1471 1470 1470 1469 1468 1467 1466 1465 1465 1464 1463 1462 1461 1460 1460 1459 1459 1459 1457 1456 1455 1455 1454 1453 1453 1452 1451 1451 1450 1449 1449 1448 1447 1445 1444 1443 1442 1440 1439 1438 1437 1436 1434 1433 1432 1430 1429 1427 1426 1424 1422 1420 1418 1415 1413 1411 1407 1404 1402 1398 1396 1393 1390 1386 1381
1479 1479 1479 1479 1479 1479 1479 1479 1478 1478 1478 1477 1476 1475 1475 1474 1473 1472 1471 1470 1469 1468 1468 1467 1466 1466 1465 1464 1463 1462 1461 1460 1459 1458 1458 1457 1457 1456 1456 1455 1454 1453 1452 1452 1451 1450 1450 1450 1449 1448 1448 1448 1446 1445 1444 1442 1441 1440 1438 1437 1436 1435 1434 1433 1432 1431 1429 1428 1426 1425 1423 1421 1419 1417 1415 1413 1410 1407 1404 1402 1400 1397 1394 1390 1387
1478 1478 1478 1478 1477 1477 1477 1477 1477 1477 1476 1476 1475 1474 1473 1472 1471 1470 1469 1468 1467 1467 1466 1465 1465 1464 1463 1462 1461 1460 1459 1458 1457 1456 1456 1455 1455 1454 1454 1453 1452 1451 1450 1450 1449 1448 1448 1448 1448 1447 1447 1447 1446 1444 1443 1441 1440 1439 1438 1436 1435 1434 1433 1433 1432 1431 1430 1428 1427 1425 1424 1422 1420 1419 1418 1416 1413 1410 1408 1406 1404 1401 1397 1393 1391
1476 1476 1476 1476 1476 1476 1476 1476 1476 1476 1475 1475 1474 1473 1472 1471 1470 1469 1468 1467 1466 1465 1465 1464 1463 1462 1461 1460 1459 1458 1457 1456 1456 1455 1454 1453 1453 1452 1452 1451 1450 1449 1449 1448 1447 1446 1446 1446 1446 1447 1447 1446 1445 1444 1443 1441 1440 1439 1437 1436 1435 1434 1433 1433 1432 1431 1430 1429 1427 1426 1425 1423 1422 1420 1419 1418 1415 1413 1411 1409 1407 1405 1401 1397 1394
1475 1475 1475 1475 1475 1475 1475 1475 1475 1474 1474 1473 1473 1472 1471 1470 1469 1467 1466 1465 1464 1463 1462 1461 1460 1459 1459 1458 1457 1456 1455 1454 1453 1452 1451 1451 1450 1450 1449 1449 1448 1447 1446 1446 1445 1445 1445 1444 1444 1445 1445 1444 1444 1443 1442 1441 1440 1438 1437 1436 1435 1434 1433 1433 1432 1431 1430 1429 1428 1427 1426 1424 1423 1421 1420 1420 1418 1415 1413 1412 1410 1408 1405 1401 1398
1474 1474 1474 1474 1474 1474 1474 1474 1474 1473 1473 1472 1471 1470 1469 1468 1467 1466 1464 1463 1462 1461 1460 1459 1458 1457 1456 1456 1455 1454 1453 1452 1451 1449 1449 1448 1447 1447 1447 1447 1446 1444 1444 1444 1444 1443 1443 1442 1442 1443 1443 1443 1442 1442 1442 1441 1440 1439 1437 1436 1436 1435 1434 1433 1432 1432 1431 1430 1429 1428 1427 1425 1424 1423 1422 1421 1420 1417 1416 1414 1412 1411 1409 1405 1402
1473 1473 1473 1473 1474 1473 1473 1473 1472 1472 1471 1470 1470 1469 1468 1467 1465 1464 1463 1462 1461 1459 1458 1457 1456 1455 1454 1453 1453 1452 1451 1450 1448 1447 1445 1444 1444 1444 1445 1445 1444 1443 1442 1442 1442 1442 1441 1441 1441 1442 1442 1442 1441 1441 1441 1440 1440 1439 1437 1436 1436 1435 1434 1433 1433 1433 1432 1431 1430 1429 1428 1426 1425 1424 1424 1423 1421 1419 1418 1417 1415 1414 1412 1409 1407
1473 1473 1473 1473 1473 1473 1473 1472 1471 1471 1470 1469 1468 1467 1466 1465 1464 1463 1462 1460 1459 1458 1456 1455 1454 1453 1452 1451 1450 1449 1448 1447 1446 1444 1442 1441 1442 1442 1442 1443 1442 1441 1440 1440 1441 1441 1440 1440 1440 1441 1441 1441 1441 1440 1440 1440 1439 1439 1438 1437 1436 1436 1434 1434 1433 1433 1433 1432 1431 1430 1429 1428 1426 1426 1425 1424 1423 1422 1421 1419 1417 1417 1416 1413 1411
1473 1473 1473 1473 1473 1472 1472 1471 1470 1470 1469 1468 1467 1466 1464 1463 1462 1461 1460 1458 1457 1455 1454 1453 1451 1450 1449 1448 1448 1446 1445 1444 1443 1442 1441 1440 1440 1440 1440 1441 1441 1439 1438 1439 1439 1439 1439 1439 1439 1440 1440 1440 1440 1440 1440 1440 1439 1439 1438 1437 1437 1436 1435 1434 1434 1434 1434 1433 1432 1432 1431 1429 1428 1427 1426 1426 1425 1425 1423 1422 1420 1420 1419 1416 1416
1473 1474 1473 1473 1472 1471 1470 1470 1469 1468 1467 1466 1465 1463 1462 1461 1460 1459 1457 1456 1455 1453 1452 1451 1449 1448 1447 1446 1445 1444 1443 1441 1440 1440 1439 1438 1438 1438 1439 1439 1438 1437 1437 1437 1437 1437 1437 1438 1438 1438 1438 1439 1439 1440 1440 1440 1439 1439 1438 1438 1437 1437 1435 1435 1434 1434 1434 1434 1433 1433 1432 1431 1429 1429 1428 1428 1428 1427 1425 1424 1423 1422 1421 1419 1420
1473 1473 1472 1471 1470 1470 1469 1468 1468 1467 1466 1465 1463 1462 1461 1459 1458 1457 1455 1454 1453 1451 1450 1449 1447 1446 1445 1444 1443 1442 1440 1439 1439 1438 1437 1436 1436 1436 1437 1437 1436 1435 1435 1434 1434 1435 1435 1436 1436 1437 1437 1437 1438 1439 1439 1439 1439 1439 1439 1438 1437 1437 1436 1435 1434 1434 1434 1434 1434 1434 1433 1432 1431 1430 1430 1430 1429 1429 1427 1426 1425 1424 1423 1423 1423
1471 1471 1470 1470 1469 1469 1468 1467 1467 1466 1465 1464 1462 1461 1460 1458 1457 1456 1454 1453 1451 1450 1448 1447 1446 1444 1443 1442 1441 1439 1438 1437 1436 1436 1435 1434 1434 1434 1435 1435 1434 1434 1434 1433 1432 1433 1434 1435 1435 1436 1436 1436 1437 1438 1439 1439 1439 1439 1438 1438 1437 1437 1436 1435 1435 1435 1435 1435 1435 1435 1434 1434 1433 1432 1432 1431 1431 1431 1429 1428 1427 1427 1426 1426 1427
1470 1470 1469 1469 1469 1468 1467 1466 1466 1465 1463 1462 1461 1459 1458 1457 1455 1454 1453 1451 1449 1448 1446 1445 1444 1442 1441 1440 1439 1437 1436 1435 1434 1433 1433 1432 1432 1432 1432 1432 1432 1432 1432 1432 1432 1432 1432 1433 1434 1434 1435 1435 1437 1438 1438 1438 1438 1438 1438 1438 1437 1437 1436 1436 1435 1435 1435 1435 1436 1436 1435 1436 1435 1434 1433 1433 1433 1433 1432 1431 1430 1429 1429 1429 1430
1469 1469 1469 1469 1468 1467 1466 1466 1465 1463 1462 1460 1459 1458 1456 1455 1454 1452 1451 1449 1448 1446 1445 1443 1442 1441 1440 1438 1437 1436 1435 1433 1432 1431 1431 1430 1430 1429 1430 1430 1430 1431 1431 1431 1431 1431 1431 1432 1433 1433 1433 1434 1435 1436 1437 1437 1437 1438 1438 1438 1438 1437 1437 1437 1436 1436 1436 1436 1436 1436 1436 1436 1436 1435 1435 1435 1435 1435 1434 1433 1433 1432 1432 1432 1433
1469 1469 1469 1468 1467 1466 1465 1464 1463 1462 1460 1459 1457 1456 1455 1454 1452 1451 1449 1448 1446 1445 1444 1442 1441 1440 1438 1437 1435 1434 1433 1432 1431 1430 1429 1429 1428 1428 1428 1429 1429 1429 1429 1429 1429 1429 1430 1430 1431 1432 1433 1433 1433 1435 1436 1436 1436 1437 1438 1438 1438 1437 1437 1437 1437 1437 1437 1437 1437 1437 1437 1437 1437 1437 1437 1437 1437 1437 1436 1436 1435 1435 1435 1435 1436
1469 1468 1468 1467 1466 1465 1464 1463 1462 1460 1459 1457 1456 1455 1454 1453 1451 1450 1448 1447 1445 1444 1442 1441 1439 1438 1437 1435 1434 1432 1431 1430 1429 1428 1428 1427 1426 1426 1427 1427 1427 1427 1427 1427 1427 1428 1428 1429 1430 1431 1432 1432 1433 1434 1435 1435 1436 1437 1437 1437 1437 1437 1437 1438 1438 1438 1438 1437 1437 1437 1438 1438 1438 1438 1438 1438 1439 1439 1438 1437 1437 1437 1437 1437 1438
1468 1467 1466 1466 1465 1464 1463 1462 1460 1459 1458 1457 1456 1455 1453 1452 1451 1449 1448 1446 1444 1443 1441 1439 1438 1436 1435 1433 1432 1431 1430 1429 1428 1427 1426 1425 1424 1424 1425 1425 1425 1425 1425 1425 1425 1426 1426 1427 1429 1430 1431 1432 1433 1433 1434 1434 1435 1436 1437 1437 1437 1437 1438 1438 1438 1438 1438 1438 1438 1438 1439 1439 1439 1439 1439 1440 1440 1441 1440 1439 1439 1439 1439 1439 1440
1467 1466 1466 1465 1464 1463 1462 1461 1459 1458 1458 1456 1455 1454 1453 1451 1450 1448 1446 1444 1442 1441 1439 1438 1437 1435 1433 1432 1431 1430 1428 1427 1427 1426 1425 1424 1423 1422 1422 1422 1423 1423 1423 1423 1424 1424 1425 1426 1428 1429 1430 1431 1432 1433 1433 1434 1435 1436 1437 1437 1437 1438 1438 1438 1438 1439 1439 1439 1439 1439 1439 1440 1440 1440 1440 1441 1442 1443 1443 1442 1441 1441 1441 1441 1442
1466 1466 1465 1464 1463 1462 1461 1460 1459 1458 1457 1456 1455 1453 1451 1449 1447 1445 1444 1442 1441 1439 1438 1437 1436 1434 1432 1431 1429 1428 1427 1426 1425 1425 1424 1423 1422 1421 1421 1420 1421 1421 1421 1421 1422 1423 1423 1425 1426 1428 1429 1430 1432 1433 1433 1434 1434 1436 1436 1437 1437 1438 1438 1438 1438 1439 1440 1439 1439 1440 1440 1441 1441 1441 1442 1442 1443 1445 1445 1445 1444 1444 1443 1444 1444
1466 1465 1464 1463 1463 1462 1461 1460 1459 1458 1457 1455 1454 1452 1449 1447 1446 1444 1443 1441 1440 1438 1437 1436 1434 1433 1431 1430 1429 1427 1426 1425 1424 1424 1423 1422 1421 1420 1420 1419 1419 1419 1419 1420 1421 1422 1423 1424 1425 1427 1428 1430 1431 1432 1432 1433 1434 1435 1436 1437 1437 1438 1438 1438 1438 1439 1440 1440 1440 1441 1441 1441 1442 1442 1443 1444 1445 1446 1447 1447 1447 1447 1446 1446 1447
1465 1465 1464 1463 1462 1461 1461 1460 1459 1457 1456 1454 1452 1450 1449 1447 1445 1444 1442 1440 1439 1437 1436 1434 1433 1431 1430 1429 1427 1426 1425 1424 1423 1422 1422 1421 1420 1419 1418 1418 1418 1418 1419 1419 1420 1421 1422 1424 1425 1426 1427 1429 1430 1431 1432 1433 1434 1435 1436 1437 1437 1438 1438 1438 1438 1438 1439 1440 1441 1442 1442 1442 1443 1443 1444 1444 1445 1447 1448 1448 1448 1448 1448 1449 1449
1465 1464 1463 1462 1462 1461 1460 1459 1458 1456 1454 1453 1451 1450 1448 1447 1445 1443 1441 1439 1438 1436 1434 1433 1431 1429 1428 1427 1425 1424 1423 1422 1421 1421 1420 1419 1418 1417 1417 1416 1416 1417 1418 1419 1420 1421 1422 1423 1424 1426 1427 1428 1429 1430 1432 1433 1434 1435 1436 1437 1437 1437 1438 1438 1438 1438 1439 1441 1442 1443 1443 1443 1443 1444 1445 1445 1446 1448 1449 1449 1450 1449 1449 1450 1451
1464 1463 1463 1462 1461 1461 1460 1459 1457 1456 1454 1452 1451 1450 1448 1446 1444 1442 1440 1438 1436 1434 1433 1431 1429 1427 1425 1424 1423 1422 1421 1420 1419 1418 1418 1418 1417 1416 1415 1415 1415 1415 1416 1417 1419 1421 1422 1423 1424 1425 1426 1427 1428 1429 1431 1432 1434 1435 1436 1437 1437 1437 1438 1439 1439 1438 1439 1440 1442 1443 1444 1444 1444 1445 1446 1446 1447 1448 1449 1450 1450 1451 1451 1451 1452
1463 1463 1463 1462 1461 1460 1460 1458 1457 1455 1454 1452 1450 1449 1446 1444 1442 1441 1439 1437 1435 1432 1430 1429 1427 1425 1423 1421 1420 1419 1419 1418 1417 1416 1416 1416 1415 1414 1414 1413 1413 1413 1414 1415 1417 1420 1422 1423 1424 1425 1426 1427 1428 1429 1430 1432 1433 1434 1435 1436 1437 1438 1438 1439 1440 1440 1440 1441 1443 1444 1444 1445 1446 1446 1447 1447 1447 1448 1449 1450 1451 1452 1452 1453 1453
1463 1463 1462 1462 1461 1460 1459 1458 1456 1455 1453 1452 1449 1447 1445 1443 1442 1440 1438 1435 1433 1431 1428 1426 1424 1422 1420 1419 1417 1417 1416 1416 1415 1414 1414 1413 1413 1413 1412 1412 1411 1412 1413 1414 1416 1419 1421 1422 1423 1425 1426 1427 1427 1428 1430 1431 1432 1433 1435 1436 1437 1438 1438 1439 1440 1441 1441 1442 1443 1444 1445 1446 1447 1447 1447 1448 1448 1449 1450 1451 1452 1452 1453 1454 1454
1462 1462 1462 1462 1461 1460 1459 1457 1456 1454 1453 1451 1449 1447 1445 1443 1441 1439 1436 1434 1431 1429 1427 1425 1423 1421 1419 1418 1416 1415 1414 1413 1412 1412 1412 1411 1411 1411 1410 1410 1410 1410 1412 1413 1415 1417 1419 1421 1423 1425 1426 1426 1427 1428 1429 1430 1431 1432 1434 1436 1437 1438 1439 1440 1441 1441 1442 1443 1444 1445 1445 1446 1447 1447 1448 1449 1449 1450 1451 1452 1452 1453 1454 1455 1455
1462 1462 1462 1461 1460 1459 1458 1456 1455 1454 1452 1450 1448 1446 1444 1442 1440 1438 1435 1433 1430 1428 1427 1425 1423 1421 1419 1418 1416 1414 1413 1412 1410 1409 1409 1409 1409 1409 1409 1409 1409 1409 1411 1412 1414 1416 1418 1420 1422 1424 1425 1426 1427 1427 1428 1429 1430 1431 1433 1435 1436 1438 1439 1440 1441 1442 1442 1443 1444 1445 1445 1446 1447 1448 1449 1450 1450 1451 1452 1453 1454 1455 1455 1456 1456
1461 1461 1461 1460 1459 1458 1457 1456 1454 1453 1451 1449 1447 1445 1443 1441 1439 1437 1435 1433 1431 1428 1426 1424 1423 1421 1420 1418 1415 1413 1412 1411 1409 1407 1407 1407 1407 1407 1407 1408 1408 1408 1410 1412 1413 1415 1418 1420 1421 1423 1424 1425 1426 1427 1427 1428 1429 1431 1433 1435 1436 1438 1439 1440 1440 1441 1442 1443 1444 1445 1446 1447 1448 1449 1450 1451 1451 1452 1453 1455 1455 1456 1457 1457 1458
1461 1460 1460 1460 1459 1458 1456 1455 1453 1452 1450 1448 1446 1444 1443 1441 1439 1437 1435 1433 1430 1428 1426 1424 1422 1420 1419 1418 1416 1414 1412 1411 1409 1407 1406 1406 1406 1406 1406 1406 1407 1408 1409 1411 1413 1415 1417 1419 1421 1423 1424 1425 1426 1426 1427 1428 1429 1431 1433 1435 1437 1438 1439 1440 1440 1441 1442 1443 1445 1445 1446 1447 1448 1449 1451 1452 1452 1453 1455 1456 1457 1457 1458 1459 1459
1460 1460 1460 1459 1458 1457 1455 1454 1452 1451 1449 1447 1445 1444 1442 1440 1438 1436 1434 1432 1430 1427 1425 1423 1421 1419 1417 1416 1415 1414 1412 1410 1408 1406 1404 1404 1404 1404 1405 1405 1406 1407 1409 1410 1413 1415 1417 1419 1420 1422 1424 1425 1425 1426 1427 1428 1430 1432 1434 1436 1437 1438 1439 1439 1440 1441 1443 1444 1445 1446 1447 1447 1448 1449 1451 1453 1453 1454 1456 1457 1458 1459 1459 1460 1460
1460 1460 1459 1459 1457 1456 1455 1453 1452 1450 1448 1446 1444 1442 1440 1438 1436 1434 1433 1431 1429 1426 1424 1422 1420 1418 1416 1415 1413 1412 1411 1409 1407 1405 1403 1403 1403 1403 1404 1405 1406 1407 1408 1410 1412 1415 1417 1418 1420 1422 1423 1424 1425 1426 1427 1429 1431 1433 1434 1436 1437 1438 1439 1440 1441 1442 1443 1444 1445 1446 1447 1449 1449 1450 1452 1453 1454 1455 1456 1458 1459 1460 1460 1461 1462
1460 1460 1459 1458 1457 1455 1454 1452 1451 1449 1447 1445 1443 1441 1438 1436 1433 1431 1430 1429 1427 1425 1422 1420 1419 1417 1415 1414 1412 1411 1410 1409 1407 1404 1402 1402 1402 1403 1403 1404 1405 1407 1408 1409 1412 1414 1416 1418 1420 1422 1423 1424 1425 1427 1428 1430 1432 1433 1435 1436 1438 1439 1440 1440 1441 1442 1443 1444 1445 1447 1448 1449 1450 1451 1452 1454 1455 1456 1457 1458 1459 1460 1461 1462 1463
1460 1459 1459 1458 1456 1454 1453 1451 1450 1448 1446 1444 1442 1439 1437 1434 1432 1429 1427 1426 1425 1424 1421 1419 1417 1416 1414 1413 1411 1410 1409 1408 1406 1404 1402 1401 1402 1403 1402 1403 1404 1406 1408 1409 1411 1414 1416 1418 1420 1421 1422 1424 1426 1427 1429 1431 1433 1434 1436 1437 1438 1439 1440 1441 1442 1443 1443 1444 1446 1447 1448 1450 1451 1451 1453 1454 1455 1456 1458 1459 1460 1461 1462 1463 1464
1460 1459 1458 1457 1455 1454 1452 1451 1449 1447 1445 1443 1440 1438 1435 1433 1431 1429 1426 1424 1423 1422 1420 1417 1416 1415 1414 1412 1410 1409 1408 1407 1406 1404 1402 1401 1402 1402 1402 1403 1404 1405 1407 1409 1411 1413 1416 1418 1420 1421 1422 1424 1426 1428 1429 1431 1433 1435 1436 1437 1438 1439 1440 1441 1443 1444 1445 1445 1446 1448 1449 1450 1451 1452 1453 1454 1455 1457 1458 1460 1461 1462 1463 1464 1465
1460 1459 1457 1456 1454 1453 1452 1450 1448 1446 1444 1441 1439 1436 1434 1432 1430 1428 1426 1424 1422 1420 1418 1416 1415 1414 1413 1411 1409 1407 1407 1406 1405 1404 1403 1402 1401 1402 1402 1403 1404 1405 1407 1408 1410 1413 1416 1418 1420 1421 1423 1425 1426 1428 1430 1432 1433 1435 1436 1437 1438 1439 1440 1442 1444 1445 1446 1447 1448 1449 1450 1450 1451 1453 1454 1455 1456 1458 1459 1460 1461 1462 1464 1465 1466
1459 1458 1456 1455 1454 1453 1451 1449 1447 1444 1442 1440 1438 1435 1433 1431 1429 1427 1425 1423 1421 1419 1417 1415 1413 1412 1411 1409 1408 1406 1405 1405 1404 1404 1403 1402 1401 1402 1402 1403 1404 1405 1407 1408 1410 1412 1415 1417 1420 1422 1423 1425 1427 1428 1430 1432 1433 1435 1436 1437 1438 1440 1441 1442 1444 1445 1446 1447 1448 1449 1450 1451 1451 1452 1453 1455 1457 1459 1460 1461 1462 1463 1465 1466 1467
1458 1457 1455 1455 1454 1452 1450 1448 1445 1443 1441 1438 1436 1434 1431 1429 1428 1426 1424 1421 1419 1417 1416 1414 1413 1411 1409 1407 1406 1405 1404 1404 1403 1403 1403 1402 1402 1402 1402 1403 1404 1405 1406 1408 1410 1412 1415 1417 1419 1421 1423 1425 1427 1429 1431 1432 1434 1436 1437 1437 1439 1440 1442 1443 1445 1446 1447 1448 1448 1449 1450 1451 1452 1453 1454 1456 1458 1460 1461 1462 1463 1465 1466 1467 1468
1458 1456 1455 1455 1453 1451 1449 1446 1444 1441 1439 1437 1434 1432 1430 1428 1426 1424 1422 1420 1418 1416 1415 1414 1412 1410 1408 1406 1405 1403 1403 1402 1402 1402 1403 1403 1402 1402 1402 1402 1403 1404 1406 1408 1410 1412 1415 1417 1419 1421 1423 1425 1427 1429 1431 1433 1434 1436 1437 1437 1439 1441 1443 1444 1446 1447 1448 1448 1449 1450 1451 1451 1452 1454 1455 1457 1459 1460 1462 1463 1465 1466 1467 1468 1470
1457 1456 1455 1453 1452 1450 1447 1445 1443 1440 1438 1435 1433 1431 1429 1427 1425 1423 1421 1419 1417 1416 1414 1413 1411 1410 1408 1406 1404 1402 1402 1401 1401 1402 1402 1402 1402 1402 1402 1402 1403 1404 1405 1408 1410 1412 1415 1417 1419 1421 1423 1425 1427 1429 1431 1433 1435 1436 1437 1437 1439 1441 1443 1445 1446 1447 1448 1449 1450 1451 1452 1452 1453 1455 1457 1458 1460 1461 1463 1465 1466 1468 1468 1469 1471
1457 1456 1454 1452 1451 1449 1446 1444 1442 1439 1437 1435 1433 1430 1428 1427 1424 1422 1420 1418 1416 1415 1414 1413 1411 1409 1407 1405 1404 1402 1401 1401 1401 1401 1401 1402 1402 1402 1402 1402 1403 1404 1405 1408 1410 1413 1415 1417 1419 1422 1424 1425 1428 1430 1432 1434 1435 1436 1437 1438 1439 1441 1443 1445 1447 1448 1449 1450 1451 1452 1453 1454 1454 1456 1457 1459 1461 1463 1464 1466 1467 1469 1470 1471 1473
1456 1455 1453 1451 1449 1447 1445 1443 1441 1439 1437 1434 1432 1430 1428 1426 1424 1421 1419 1417 1416 1415 1413 1412 1410 1408 1406 1405 1403 1402 1401 1400 1400 1400 1401 1401 1402 1402 1402 1402 1402 1403 1405 1408 1410 1413 1415 1417 1420 1422 1424 1426 1428 1430 1432 1434 1436 1436 1437 1438 1439 1441 1444 1445 1447 1449 1450 1451 1452 1453 1454 1455 1456 1457 1459 1460 1462 1464 1465 1466 1468 1470 1471 1472 1474
1455 1453 1452 1450 1449 1446 1445 1443 1440 1438 1436 1433 1431 1429 1427 1425 1423 1420 1419 1417 1417 1415 1413 1411 1409 1407 1405 1404 1402 1401 1400 1399 1399 1400 1400 1401 1401 1401 1402 1402 1402 1403 1405 1408 1411 1413 1416 1418 1420 1423 1425 1427 1429 1431 1433 1434 1436 1437 1437 1438 1440 1442 1444 1446 1448 1450 1451 1452 1453 1454 1454 1456 1457 1458 1459 1461 1463 1464 1466 1467 1469 1470 1471 1473 1474
1454 1453 1451 1450 1448 1446 1444 1442 1440 1438 1435 1433 1431 1429 1427 1424 1422 1420 1419 1418 1417 1415 1412 1410 1408 1405 1404 1403 1401 1400 1400 1399 1399 1399 1400 1401 1401 1401 1402 1402 1402 1403 1405 1407 1411 1414 1416 1419 1421 1423 1425 1427 1429 1431 1433 1435 1436 1437 1437 1438 1440 1442 1444 1446 1448 1450 1451 1452 1453 1454 1455 1456 1458 1459 1460 1462 1464 1465 1467 1468 1469 1470 1472 1473 1475
1454 1452 1451 1449 1447 1446 1444 1442 1440 1437 1434 1432 1430 1428 1426 1423 1421 1420 1419 1418 1416 1414 1412 1409 1407 1405 1403 1402 1401 1400 1399 1399 1399 1400 1401 1401 1401 1401 1402 1402 1402 1403 1405 1408 1411 1414 1417 1419 1422 1424 1426 1428 1430 1431 1433 1435 1436 1437 1437 1439 1440 1443 1445 1447 1449 1450 1451 1452 1454 1455 1456 1457 1458 1459 1461 1463 1464 1466 1467 1469 1470 1471 1472 1474 1476
1454 1452 1451 1449 1446 1444 1443 1441 1439 1436 1434 1432 1430 1427 1425 1422 1421 1420 1420 1418 1416 1414 1411 1409 1407 1405 1403 1402 1401 1400 1399 1399 1400 1401 1401 1401 1401 1402 1402 1403 1403 1404 1405 1408 1412 1415 1417 1420 1422 1424 1426 1428 1430 1431 1433 1435 1436 1437 1438 1439 1441 1443 1445 1448 1450 1451 1452 1453 1454 1456 1457 1458 1459 1460 1461 1463 1465 1467 1468 1469 1471 1472 1473 1475 1477
1454 1452 1450 1448 1445 1443 1442 1440 1438 1436 1434 1432 1429 1427 1424 1422 1421 1421 1420 1418 1416 1414 1411 1409 1406 1405 1403 1402 1401 1400 1400 1400 1401 1402 1402 1402 1402 1403 1404 1404 1404 1405 1406 1410 1413 1416 1418 1421 1423 1425 1427 1429 1430 1432 1433 1435 1436 1438 1439 1440 1442 1444 1446 1448 1450 1452 1453 1454 1455 1456 1458 1459 1459 1460 1462 1464 1466 1467 1469 1470 1472 1473 1475 1477 1478
1454 1452 1450 1447 1444 1442 1441 1439 1437 1435 1434 1432 1429 1426 1424 1423 1422 1421 1420 1418 1416 1414 1411 1409 1407 1405 1404 1403 1402 1401 1402 1402 1403 1403 1403 1403 1404 1404 1405 1405 1405 1406 1408 1411 1414 1417 1419 1422 1424 1426 1428 1429 1431 1432 1434 1436 1437 1438 1440 1441 1443 1445 1447 1449 1451 1452 1454 1455 1456 1457 1459 1459 1460 1461 1462 1464 1466 1468 1469 1471 1472 1474 1476 1478 1479
1453 1451 1449 1446 1443 1441 1439 1438 1437 1435 1434 1431 1428 1426 1425 1424 1422 1421 1419 1418 1417 1414 1412 1410 1408 1406 1405 1404 1404 1404 1404 1404 1405 1404 1404 1405 1405 1406 1406 1406 1407 1408 1410 1413 1415 1418 1420 1422 1425 1427 1429 1430 1432 1433 1435 1436 1438 1439 1441 1442 1444 1446 1448 1450 1451 1453 1454 1456 1457 1458 1459 1460 1461 1462 1463 1465 1467 1468 1470 1472 1473 1475 1477 1479 1480
1453 1450 1448 1445 1443 1441 1439 1438 1437 1435 1433 1430 1428 1426 1425 1424 1422 1421 1419 1418 1417 1415 1413 1411 1409 1408 1407 1407 1406 1406 1406 1407 1407 1407 1406 1407 1407 1408 1408 1408 1408 1410 1412 1415 1417 1419 1421 1424 1426 1428 1430 1431 1433 1434 1436 1437 1439 1440 1441 1443 1444 1446 1448 1450 1451 1453 1455 1456 1458 1459 1460 1461 1461 1462 1464 1465 1467 1468 1470 1472 1474 1476 1478 1479 1481
1452 1449 1447 1444 1442 1441 1440 1439 1437 1434 1432 1429 1428 1427 1426 1424 1422 1421 1420 1418 1417 1416 1415 1413 1412 1411 1410 1409 1409 1409 1409 1409 1409 1409 1408 1409 1409 1409 1410 1410 1410 1412 1414 1417 1419 1421 1423 1425 1427 1429 1431 1432 1434 1435 1437 1438 1439 1441 1442 1443 1445 1447 1448 1450 1452 1454 1455 1457 1458 1459 1460 1461 1462 1463 1464 1465 1467 1469 1471 1473 1475 1476 1478 1480 1481
Wind_Speed
8 6 6 7 7 7 8 9 10 11 12 13 14 14 14 14 15 15 16 16 17 18 19 19 20 20 19 19 18 16 16 15 13 14 15 14 14 16 16 13 12 13 12 12 11 11 12 14 13 11 10 11 10 10 11 12 13 11 9 8 7 8 11 11 13 14 13 13 11 10 13 17 21 24 21 20 24 26 27 29 28 29 34 39 41
5 5 5 6 6 7 8 10 11 13 14 15 15 15 15 15 14 15 16 16 17 17 18 19 19 20 19 19 17 17 16 15 14 16 18 17 15 16 16 14 13 13 12 11 10 10 11 13 14 11 10 11 11 12 13 13 13 11 10 11 10 8 10 11 11 11 12 12 10 9 12 16 20 22 20 19 23 25 26 28 29 28 30 34 40
5 6 7 7 7 8 10 11 12 14 16 16 16 15 15 16 15 16 16 16 16 16 16 17 17 18 18 17 17 17 16 15 15 17 19 19 17 15 15 15 14 13 13 12 10 10 12 13 13 11 10 11 13 15 15 13 11 10 11 13 11 7 7 8 9 9 9 10 9 9 12 15 18 20 19 17 20 24 25 27 27 26 28 31 35
8 9 9 9 9 9 11 12 14 16 17 17 16 15 15 16 16 17 17 16 16 16 16 17 17 18 17 17 17 17 17 16 16 17 18 19 18 16 15 15 14 13 14 14 12 13 14 11 10 11 12 13 15 15 12 10 8 8 11 12 8 4 4 6 6 6 7 8 8 9 10 13 15 18 17 15 18 22 24 24 24 25 28 32 33
9 10 10 10 11 11 11 13 14 16 17 16 16 15 16 16 15 16 16 16 16 16 16 17 17 17 17 16 16 17 17 16 18 19 19 19 20 18 16 16 15 13 13 14 13 14 12 7 7 12 13 13 17 15 9 7 7 7 9 8 4 3 3 4 5 5 6 7 8 7 8 11 13 16 16 14 15 20 22 23 23 23 27 32 34
10 10 11 11 11 11 12 14 15 16 16 17 18 17 18 19 18 18 18 18 18 17 17 18 17 15 16 16 16 17 16 17 19 21 20 20 21 20 17 17 18 15 12 12 12 13 11 6 6 11 11 11 15 13 6 6 8 8 7 4 3 3 2 3 4 5 6 6 8 8 8 10 13 15 15 14 13 18 21 22 23 23 26 32 36
11 11 11 12 11 11 12 14 15 16 17 18 19 20 20 21 21 20 20 20 20 20 20 20 19 17 17 17 17 17 17 18 20 22 22 21 21 21 19 18 19 17 13 12 12 12 9 6 5 8 9 10 12 8 3 5 8 8 6 4 3 4 3 3 4 4 5 5 7 8 8 10 13 14 14 13 13 17 21 23 25 27 28 33 37
11 10 11 11 11 10 12 14 15 17 18 19 19 19 19 19 19 18 18 18 19 18 19 19 20 21 20 18 18 19 19 20 21 23 24 22 20 21 20 17 18 18 15 13 13 12 10 7 5 6 7 9 9 3 1 5 7 8 7 5 4 4 3 4 4 5 5 4 6 8 8 9 12 12 12 13 15 19 22 25 28 30 31 33 37
9 9 10 10 10 10 12 14 15 16 16 17 17 17 17 17 17 17 17 17 18 19 20 21 22 23 23 22 22 22 21 22 22 25 26 23 20 19 20 18 19 18 14 12 13 14 12 8 5 5 6 7 3 1 2 4 6 8 9 6 4 4 4 4 5 6 5 4 6 7 7 9 10 11 12 14 16 19 22 26 30 32 32 34 37
7 7 8 8 9 9 11 13 14 14 15 16 17 17 17 17 17 17 18 18 20 20 20 20 21 22 23 23 24 25 23 23 24 25 26 24 20 19 20 20 19 15 13 12 12 14 13 8 5 4 3 3 0 1 1 2 4 6 8 7 5 4 5 4 5 6 5 4 5 6 7 9 9 10 13 12 12 16 19 25 29 31 32 35 37
3 4 4 6 6 6 7 9 10 11 12 13 14 14 15 15 14 15 15 15 17 17 16 17 18 19 19 20 22 23 23 24 24 24 25 24 22 20 19 19 16 12 11 11 10 12 12 9 7 5 2 3 3 2 3 2 1 4 6 7 6 5 5 4 3 5 5 4 5 6 8 9 9 10 11 9 10 14 18 22 26 28 31 35 37
3 3 3 4 5 4 5 6 7 8 10 11 12 12 12 12 12 12 12 13 15 16 16 17 17 16 16 17 19 20 21 21 21 22 24 24 23 20 17 15 13 10 9 9 9 10 10 11 10 8 5 4 5 3 3 2 1 3 5 6 7 6 6 4 3 4 5 5 4 6 8 8 8 8 9 9 10 13 18 21 24 28 31 35 37
6 6 5 5 4 4 5 6 7 9 11 12 13 12 12 12 13 13 14 15 17 18 18 18 16 16 16 16 18 18 19 19 17 19 23 23 21 21 16 11 10 9 9 9 10 10 10 12 12 10 7 5 6 4 3 3 2 1 3 4 6 6 6 5 3 4 5 5 4 6 7 7 7 8 8 8 8 12 18 22 25 28 31 33 35
8 7 5 4 5 6 7 9 11 14 15 16 16 16 15 16 16 16 17 18 19 18 18 17 16 15 15 15 16 16 18 17 15 16 19 18 19 20 15 7 7 8 9 9 10 10 11 12 12 10 8 7 7 6 5 4 3 3 2 2 4 5 6 5 3 4 5 6 5 6 7 7 7 9 8 7 7 10 16 21 24 26 29 31 32
7 5 4 5 7 9 11 14 16 17 17 18 18 18 17 17 16 18 20 20 18 15 14 14 14 14 14 14 15 15 16 15 13 14 15 15 18 19 13 6 6 8 8 9 9 10 11 13 12 10 9 9 8 8 7 5 5 4 2 1 3 5 5 4 4 6 6 6 6 7 7 7 8 9 8 7 7 11 15 18 22 25 27 29 29
6 3 4 7 10 13 15 16 16 16 16 16 16 15 16 16 17 20 22 19 14 12 13 13 13 14 15 15 15 14 14 13 12 12 13 14 17 17 11 6 7 8 8 8 9 10 12 14 12 10 10 10 9 8 7 7 7 6 3 2 2 5 5 3 5 7 6 5 6 7 8 7 8 9 8 6 7 10 15 18 21 22 25 27 29
3 5 8 10 12 14 14 14 15 14 14 13 13 14 16 17 19 22 21 17 14 14 15 14 13 14 16 16 15 14 12 12 12 12 12 14 17 16 11 7 7 8 9 9 8 10 14 15 13 12 11 11 9 9 8 8 8 7 4 3 3 5 5 4 6 7 6 5 6 7 8 7 7 8 8 7 7 8 13 19 20 21 24 28 30
5 8 10 12 13 13 13 13 13 12 12 12 12 14 16 19 21 21 19 17 16 16 16 15 13 14 16 16 15 13 11 10 11 12 12 13 16 16 12 9 7 8 10 9 8 11 15 16 14 12 10 10 10 9 8 8 9 8 5 4 5 5 5 5 6 6 6 7 7 7 8 7 7 9 8 8 8 7 10 16 19 20 23 27 28
8 10 11 12 12 12 12 12 11 11 11 12 14 17 19 21 21 19 17 16 16 15 15 15 13 12 14 15 14 12 11 9 9 9 10 11 14 16 14 12 9 8 11 10 9 12 16 17 14 10 7 7 8 7 6 7 10 9 5 5 6 5 4 5 6 6 6 7 8 9 8 8 9 10 9 9 10 8 9 14 17 18 22 25 25
8 10 11 11 11 11 11 10 9 11 12 15 17 18 18 16 15 15 14 14 15 15 15 14 13 12 13 12 11 10 10 8 6 7 9 10 12 14 15 13 10 10 11 11 10 12 16 17 14 9 6 6 8 8 7 7 10 10 6 5 6 5 3 2 3 6 8 8 9 9 10 10 9 10 10 10 10 10 11 13 14 15 18 21 21
8 8 9 10 9 9 8 8 9 12 14 16 15 12 11 11 12 13 14 15 15 16 15 15 15 14 13 12 10 9 9 8 6 6 8 9 10 12 14 15 13 13 13 12 11 12 14 16 13 10 7 7 7 9 9 8 9 9 7 6 7 6 3 1 2 6 11 11 9 9 10 11 11 11 11 11 11 12 13 14 14 13 13 14 14
6 7 8 8 7 7 7 9 11 13 12 11 9 8 9 12 14 14 15 16 16 17 17 17 16 16 15 13 11 11 11 9 6 6 7 9 10 11 13 14 13 15 14 11 10 11 12 12 11 10 9 8 8 9 11 11 10 9 7 8 8 6 4 3 5 10 13 12 10 10 10 11 11 11 12 12 13 14 14 13 12 11 10 9 9
5 6 6 6 6 7 9 10 10 8 7 7 8 10 12 15 16 16 17 18 18 18 18 18 17 17 16 15 14 12 11 8 5 5 8 10 11 12 12 11 11 15 15 11 10 10 11 10 11 11 10 9 8 10 12 14 13 11 9 9 8 5 3 3 7 13 15 12 11 11 10 10 10 10 11 12 13 14 15 12 9 9 10 10 9
5 5 5 5 7 8 8 7 6 6 7 9 12 15 16 18 19 19 19 20 21 21 21 21 21 21 20 20 18 14 10 8 6 6 7 9 10 11 10 8 9 14 16 12 9 11 12 10 11 11 10 8 7 8 11 15 16 13 11 10 8 6 4 2 4 10 14 13 11 10 9 9 9 10 11 11 12 13 15 13 9 8 9 10 9
5 4 5 6 7 8 7 7 7 8 10 14 18 20 19 19 19 20 21 23 24 25 25 25 24 23 23 22 22 19 14 10 8 7 6 6 8 10 10 8 9 13 17 12 9 12 13 11 12 11 9 7 5 6 9 13 14 14 13 11 9 7 5 2 3 7 11 12 8 7 8 9 9 10 10 11 11 12 13 13 10 9 10 11 11
4 3 4 6 7 8 8 8 9 11 13 17 21 22 18 17 19 21 22 24 24 23 22 21 20 20 20 20 20 20 18 14 11 9 5 3 7 10 10 10 9 11 16 12 10 12 13 13 14 12 9 8 6 6 8 10 11 14 15 11 10 10 7 5 4 6 9 10 7 6 7 9 10 10 10 10 10 11 12 13 12 10 10 11 12
2 4 7 9 9 9 9 9 10 13 16 20 22 20 17 18 21 22 23 24 22 20 20 19 19 20 19 19 19 19 17 16 14 10 7 7 7 8 10 11 10 8 14 13 12 13 14 16 16 12 9 9 8 7 8 8 10 15 16 12 10 11 9 6 6 7 9 10 8 6 7 9 11 10 10 10 11 10 10 11 11 11 11 11 13
6 7 8 9 8 8 9 10 12 15 18 21 20 19 19 21 22 22 24 23 20 20 20 20 19 21 20 19 20 19 15 13 14 11 9 9 8 6 8 10 8 6 12 14 13 15 16 18 17 13 9 9 8 7 8 9 11 17 17 13 11 11 9 7 8 9 11 11 9 7 8 11 13 12 11 11 11 11 10 10 11 12 11 11 13
7 7 7 7 7 8 10 11 14 17 18 18 19 19 20 22 22 22 23 21 19 19 21 20 20 21 18 17 20 22 18 15 14 11 8 8 7 3 5 6 4 3 10 14 13 15 18 19 16 12 8 8 8 7 8 9 14 18 17 14 12 10 8 8 9 11 13 13 10 9 10 13 14 12 12 12 12 12 11 11 12 12 11 11 13
5 5 6 7 8 10 12 14 15 16 16 17 19 20 22 23 22 21 21 21 19 19 20 21 22 21 16 13 16 19 19 18 15 11 9 8 7 3 1 1 1 2 8 13 14 15 18 18 14 12 10 8 8 8 9 12 16 18 17 15 13 10 8 8 9 10 12 13 12 10 11 14 15 14 13 14 14 13 12 11 11 11 11 12 14
4 4 7 9 10 12 13 13 13 14 16 18 20 22 23 23 22 21 20 19 19 19 20 20 20 19 16 13 12 15 15 15 14 11 10 9 7 5 4 3 4 3 7 13 16 16 17 17 14 12 11 9 8 9 12 15 18 19 18 16 12 9 7 7 8 10 12 14 12 10 11 15 16 16 15 14 14 14 13 12 11 11 12 14 16
4 6 8 10 11 12 12 13 14 15 17 19 21 22 23 23 23 23 20 18 18 19 20 19 18 16 14 13 13 14 14 14 15 12 7 9 7 7 7 7 6 4 7 12 16 16 15 15 14 11 11 10 10 12 16 18 20 19 17 15 12 9 7 6 7 10 13 14 12 11 12 14 15 16 16 15 16 16 15 13 13 13 14 15 16
6 8 10 10 11 12 13 14 15 16 17 19 20 22 23 23 23 23 21 18 17 17 18 19 18 15 13 12 14 15 14 13 15 12 3 7 8 8 10 9 7 4 5 10 15 15 14 15 14 11 13 14 14 15 18 20 19 18 15 13 11 9 8 7 6 8 12 14 13 12 12 12 13 15 17 17 16 16 14 13 14 15 15 16 16
8 9 9 10 12 12 12 13 14 15 17 20 21 22 22 21 21 21 21 20 19 17 16 18 19 16 15 14 13 14 14 11 11 10 4 4 8 9 10 9 7 5 4 7 12 14 15 15 13 13 16 17 15 17 19 18 17 15 12 10 10 11 10 9 6 5 9 14 14 12 12 11 11 14 19 19 17 15 14 12 14 16 16 16 17
8 8 9 9 10 11 11 12 13 16 19 21 21 21 21 20 19 20 20 20 19 17 17 19 20 18 16 15 14 12 11 9 8 8 6 1 6 8 8 7 6 5 5 7 10 13 15 14 12 14 18 18 16 17 17 15 15 12 8 8 12 13 12 10 8 7 8 11 12 12 11 10 10 14 19 20 17 15 13 12 13 15 16 17 19
8 8 7 7 9 10 11 12 15 19 21 21 21 20 19 18 18 18 18 18 17 17 18 20 21 19 17 16 15 11 8 7 6 6 5 2 4 6 7 6 4 3 5 8 11 13 14 13 11 14 19 19 17 16 15 14 12 10 6 8 14 16 13 11 10 9 9 10 10 10 10 10 9 12 18 19 17 14 13 13 13 14 16 19 22
7 6 5 8 9 10 11 15 19 21 22 22 21 19 16 17 17 18 18 17 17 19 19 19 21 21 19 17 17 13 7 4 3 4 4 3 3 6 6 6 5 4 4 7 11 14 14 12 12 14 18 18 17 16 14 13 12 10 6 8 14 17 14 11 10 8 9 9 9 8 8 8 9 13 19 21 18 15 14 15 17 18 20 23 24
4 4 6 9 10 11 15 19 21 22 23 22 19 16 16 18 19 18 18 18 19 20 21 20 19 20 19 19 18 15 8 2 1 1 1 3 3 4 4 5 6 5 4 6 12 16 14 12 13 16 18 19 18 17 14 13 14 11 6 7 14 18 15 12 9 7 7 8 7 5 5 7 10 16 21 22 20 18 17 18 20 22 23 23 23
3 6 8 10 12 16 20 21 21 23 23 21 18 17 19 21 22 21 20 20 20 20 21 20 18 18 17 17 18 16 11 4 2 3 2 4 5 3 3 5 6 7 7 8 13 16 14 12 15 19 20 20 21 18 14 13 15 12 6 7 16 20 16 13 11 8 7 7 6 3 3 8 14 19 21 21 20 20 20 19 19 20 21 20 20
5 7 10 14 17 21 22 22 22 24 22 19 19 20 22 24 24 23 21 20 20 20 19 19 18 16 15 15 15 15 13 8 2 2 2 3 5 3 3 6 7 8 9 11 14 16 15 15 18 19 18 20 22 19 13 13 16 12 5 8 17 21 17 14 13 10 7 8 6 2 3 11 18 20 20 20 19 19 19 18 18 18 18 18 17
7 10 13 17 20 22 22 22 24 23 20 19 20 22 23 25 24 22 20 20 20 19 19 18 17 16 14 13 12 12 11 8 3 1 2 2 3 3 2 6 8 10 12 13 15 16 16 17 19 18 16 17 20 16 12 13 15 10 6 10 19 20 17 16 14 11 8 8 7 3 3 10 17 19 19 19 19 17 17 17 17 17 17 16 16
10 13 16 19 22 24 23 23 24 22 19 19 20 21 23 24 23 20 19 20 19 19 19 18 17 16 14 12 11 10 8 6 3 2 3 2 2 2 3 6 10 12 14 16 17 18 18 19 19 18 15 15 16 14 13 15 14 8 7 15 21 19 17 18 16 11 9 9 7 4 4 8 13 17 18 19 18 17 17 17 16 16 16 17 17
12 15 18 20 23 24 23 23 24 22 20 19 21 22 23 22 20 18 19 19 19 19 19 18 18 17 14 12 11 9 7 5 2 3 5 3 2 2 3 7 11 13 15 19 21 20 19 19 19 17 14 13 14 15 15 16 14 8 8 17 23 20 18 19 17 12 11 11 8 6 6 7 10 15 18 18 18 18 17 17 16 16 17 18 18
13 16 18 21 23 23 22 22 23 22 20 21 21 21 21 20 18 17 18 19 19 20 20 18 18 17 14 12 11 9 7 5 2 4 6 4 2 2 3 7 11 14 18 22 24 22 20 18 17 15 13 12 13 15 15 16 14 9 9 17 22 20 19 19 16 13 13 12 10 8 8 8 10 15 19 19 18 18 17 16 16 17 18 19 19
15 17 18 21 23 22 20 21 22 22 21 22 22 20 19 19 17 16 17 18 19 20 20 19 18 16 13 12 11 9 7 4 1 6 6 4 3 4 6 7 10 15 20 25 26 24 21 18 16 14 13 12 12 14 16 15 13 10 11 16 20 19 18 18 15 10 10 11 11 10 9 7 8 15 20 20 18 18 17 16 15 17 18 18 19
16 17 19 22 23 21 19 20 21 21 22 22 22 21 19 18 16 15 16 18 19 20 21 21 18 15 12 11 10 9 7 4 5 7 6 4 4 7 7 7 10 16 22 25 26 24 21 17 14 13 13 12 12 14 16 15 12 10 11 15 18 18 18 17 13 7 6 8 10 11 9 5 6 14 21 22 19 17 17 15 15 16 17 18 18
15 17 19 22 22 18 17 18 20 21 22 22 22 22 20 18 15 13 14 17 19 20 21 21 18 15 13 12 10 8 7 7 7 7 5 5 6 8 7 6 10 19 25 26 25 22 19 15 13 13 13 14 13 14 15 14 12 11 12 14 17 18 17 15 11 7 6 7 9 11 10 7 7 13 21 23 20 18 18 16 15 15 17 17 17
15 16 20 22 21 17 16 17 18 20 21 22 23 22 21 18 15 13 14 16 18 20 21 22 19 15 14 12 9 9 10 9 7 5 6 7 8 8 6 5 9 19 26 27 24 22 18 15 14 14 13 14 14 13 13 13 12 12 13 15 16 16 17 14 11 9 8 8 8 9 9 8 7 11 18 23 22 20 18 16 15 15 16 17 17
15 17 20 21 20 18 16 16 17 18 21 22 22 22 21 18 15 14 15 16 17 19 20 21 19 16 14 11 10 11 10 9 8 8 9 10 10 9 8 6 8 18 25 26 24 21 18 17 17 15 13 13 14 12 11 12 12 13 14 14 15 15 15 14 12 10 10 10 10 9 9 9 8 9 14 20 22 21 18 16 16 16 16 16 16
17 19 21 21 21 19 17 16 16 18 21 22 22 21 19 17 15 15 16 16 17 18 19 19 18 16 13 11 11 11 9 9 10 12 14 13 11 10 10 8 9 19 25 24 22 20 18 18 18 16 12 12 13 12 11 11 13 14 15 14 13 13 14 13 12 12 12 11 10 10 10 10 10 10 11 16 21 22 19 17 16 17 16 16 16
20 20 21 22 21 20 18 18 19 20 22 23 22 20 17 15 15 15 15 16 16 16 17 17 16 15 12 10 10 9 9 10 11 12 12 12 10 11 11 10 12 20 24 22 19 19 19 18 17 15 12 12 13 11 10 11 13 14 14 13 12 13 14 14 13 12 10 8 9 11 12 12 12 12 12 15 20 22 20 18 17 17 16 15 16
Wind_Direction
275 290 302 301 302 310 318 323 324 321 318 315 314 316 315 311 309 306 303 302 300 298 299 300 301 303 304 307 308 306 307 309 300 290 295 302 297 295 309 316 296 289 299 306 312 317 316 321 323 309 293 292 297 306 312 314 314 313 309 309 317 325 329 336 341 349 2 13 20 14 3 6 11 15 23 31 35 37 38 43 46 43 48 59 67
281 300 310 311 317 322 322 325 326 325 325 322 319 317 315 313 310 306 305 305 302 300 301 301 301 302 301 304 305 300 303 310 297 283 288 295 295 298 309 312 296 291 295 298 305 309 308 317 323 314 297 296 298 303 310 314 312 309 309 312 316 317 322 332 341 348 358 11 23 19 9 12 14 18 27 35 39 40 39 42 47 48 50 55 63
279 285 292 305 316 318 318 321 322 325 329 329 324 318 314 313 310 308 308 308 303 301 300 299 298 298 296 298 304 298 296 305 300 286 284 291 297 302 305 304 299 294 291 288 289 289 295 313 322 314 308 314 317 314 312 314 314 309 309 316 320 318 320 333 343 351 2 15 29 27 15 15 17 21 29 39 44 44 42 43 46 51 57 58 59
278 279 286 300 308 310 314 317 320 325 330 331 326 320 315 313 311 311 311 310 308 304 302 301 298 297 296 297 304 301 293 297 301 294 287 289 295 298 301 302 297 291 286 282 278 278 287 307 321 317 318 325 330 327 319 320 325 317 315 321 330 338 339 344 352 359 11 27 38 34 20 18 23 26 30 41 52 51 47 47 49 53 61 65 63
276 282 288 295 302 307 310 311 318 326 328 327 326 323 320 318 316 318 316 314 312 307 306 307 302 299 301 301 302 302 295 290 294 298 295 288 289 294 301 307 303 293 282 277 272 272 280 292 313 320 322 325 329 330 329 334 337 329 327 336 3 18 3 8 9 6 19 40 52 46 30 26 31 33 32 40 58 61 55 52 54 59 64 69 70
271 279 285 292 300 304 306 310 317 323 322 321 323 322 320 319 318 318 316 315 316 314 314 317 312 307 307 305 303 302 298 288 287 296 299 290 286 288 294 307 313 301 275 263 263 268 273 270 298 317 317 320 328 330 335 347 344 342 347 13 46 27 25 34 22 21 30 47 61 59 44 39 40 39 38 42 60 70 67 62 63 68 71 72 73
265 272 280 288 293 295 303 312 317 319 319 319 320 320 320 320 319 317 315 317 321 322 321 321 318 312 307 305 304 301 297 292 288 292 296 293 288 284 282 296 311 302 274 257 262 267 262 245 273 306 307 318 329 328 343 6 360 2 18 59 53 22 30 35 28 38 41 47 65 66 56 51 50 47 44 50 66 75 74 72 71 74 77 76 75
260 275 283 282 287 298 309 315 316 316 317 317 319 321 323 324 323 320 319 320 324 324 322 319 315 311 306 300 300 297 291 289 289 290 291 291 287 279 275 286 303 298 277 262 267 269 255 240 262 294 306 322 327 312 77 30 20 26 37 59 56 28 26 31 29 37 44 57 73 76 72 63 62 60 53 58 71 77 77 77 77 78 79 78 77
266 282 279 278 294 312 317 318 318 319 320 323 326 328 329 329 328 327 326 326 324 321 318 314 310 308 303 297 300 302 293 286 288 289 288 288 284 274 268 276 295 298 278 265 273 272 258 248 260 282 306 326 327 169 96 42 39 40 42 51 61 49 36 33 35 36 45 71 82 88 88 75 71 66 55 59 74 83 84 84 84 83 82 82 80
267 267 267 284 304 317 323 326 328 329 329 329 329 328 328 329 330 330 327 325 322 319 318 316 313 311 306 302 303 305 299 292 291 290 290 292 287 272 264 273 290 294 273 264 274 270 256 246 251 259 294 327 5 127 356 25 54 45 44 47 51 52 42 36 44 44 42 61 83 98 96 82 75 64 55 61 83 94 93 91 90 88 87 85 82
236 249 271 288 295 307 321 323 322 322 321 320 319 316 315 318 320 320 319 318 318 318 320 320 320 320 317 312 309 308 305 301 297 294 293 290 283 272 269 279 290 286 267 266 275 267 248 233 233 228 239 283 269 281 299 281 45 38 40 40 34 39 41 40 60 61 47 48 77 97 94 86 80 69 63 71 94 103 100 97 95 94 91 87 83
184 194 229 250 264 284 295 298 303 310 316 320 319 314 311 311 310 311 314 313 311 312 313 313 316 321 323 322 318 316 315 310 305 299 291 283 278 276 276 284 289 281 269 272 277 267 241 226 232 226 213 243 250 257 277 244 182 23 16 18 23 32 38 49 92 93 68 63 81 95 95 91 85 79 75 79 97 109 106 101 98 95 93 91 88
174 181 200 228 261 281 284 293 304 313 319 321 318 314 312 312 313 313 314 314 312 312 311 312 314 318 323 324 322 323 324 320 316 305 291 282 282 280 275 281 288 276 269 270 270 263 241 230 237 233 216 222 229 233 246 224 205 323 337 357 19 31 36 51 99 112 88 83 93 98 97 96 90 86 82 78 94 116 113 105 101 98 97 96 94
177 186 208 237 266 281 291 302 308 313 317 317 316 317 316 316 318 318 320 320 318 317 317 317 317 317 318 320 318 322 326 324 322 315 300 292 292 284 272 275 290 276 271 272 266 258 240 230 236 236 225 219 215 220 234 229 224 241 266 5 30 39 40 47 80 108 102 97 100 100 99 102 98 93 87 75 84 115 118 110 105 103 101 100 100
181 194 225 262 283 294 300 303 306 311 317 319 320 321 321 323 325 326 329 330 328 331 335 332 329 324 319 318 319 325 330 326 321 318 311 306 301 288 272 264 279 274 273 273 264 254 238 229 234 233 221 213 209 217 236 237 221 213 195 74 46 52 49 50 85 111 115 105 96 95 98 107 110 102 95 85 90 112 119 112 108 106 105 103 102
186 216 275 294 300 304 306 307 311 317 322 324 325 326 328 330 331 330 332 334 337 346 350 347 342 336 329 326 325 328 334 333 327 322 318 312 303 290 274 262 269 264 263 265 257 244 231 227 229 226 222 227 222 217 238 252 232 209 182 129 79 64 61 78 109 115 116 102 96 103 107 113 119 111 100 88 97 116 119 114 111 112 110 108 104
236 297 308 311 312 314 317 318 322 326 328 328 329 331 332 331 330 330 331 332 337 340 339 337 337 338 336 331 326 327 333 337 338 336 328 316 305 293 274 259 262 255 251 255 248 231 224 225 226 226 233 241 230 219 240 252 228 203 182 152 122 87 82 108 125 125 119 105 105 115 116 117 123 120 111 96 98 114 116 116 119 119 114 111 109
311 319 319 319 320 321 322 324 325 327 331 333 333 333 331 329 330 330 328 328 335 337 333 329 327 327 328 325 321 322 327 333 337 339 334 321 311 301 278 252 248 248 245 245 237 224 222 225 229 233 239 236 222 221 240 234 207 198 188 160 142 116 108 127 137 140 134 119 115 120 123 127 130 127 123 112 106 111 112 116 123 122 116 115 115
325 324 322 323 322 320 320 321 323 327 333 335 333 330 329 329 330 328 322 321 327 329 329 330 330 328 327 326 321 313 312 322 333 339 339 329 320 312 289 258 241 245 246 241 229 220 219 222 227 226 221 218 215 222 234 216 201 201 190 165 161 147 137 148 150 152 151 131 121 120 121 128 136 136 132 123 117 121 121 118 120 120 118 120 121
328 322 322 325 321 316 316 319 325 330 332 330 329 330 331 332 332 330 325 323 325 325 326 329 331 330 330 331 324 310 310 330 343 341 340 333 328 322 303 275 251 241 243 239 227 220 218 218 217 207 199 215 224 227 231 213 201 204 198 174 174 170 157 168 170 164 162 147 130 123 120 125 136 142 140 134 128 131 131 123 117 117 119 123 124
323 322 322 319 313 313 318 323 327 330 330 329 329 333 337 337 336 336 333 330 327 326 325 325 324 323 323 324 322 316 320 335 340 329 333 335 330 328 319 301 274 244 236 234 225 221 221 217 208 195 198 219 227 226 226 210 194 202 204 173 170 178 178 213 221 179 168 159 144 132 129 130 137 145 148 147 142 140 138 128 121 119 119 121 124
325 323 317 311 312 320 327 328 330 334 337 337 338 341 341 336 334 334 333 330 328 325 323 320 318 316 313 311 313 317 320 327 332 322 325 335 332 328 330 323 288 249 235 231 223 219 221 215 201 191 202 221 222 213 210 201 189 193 189 167 167 182 186 177 173 164 160 156 145 133 128 128 134 145 153 155 154 154 151 142 130 125 126 128 130
327 322 317 319 333 340 340 341 345 351 355 351 342 338 335 332 330 329 328 326 325 322 319 317 314 311 307 305 309 316 317 316 319 316 323 334 336 331 332 327 286 249 233 229 226 220 213 202 192 196 211 219 212 200 195 192 189 187 174 161 166 182 184 168 159 149 141 138 137 131 123 122 131 144 155 157 159 164 168 165 147 130 133 139 139
329 327 328 342 354 355 357 5 13 13 1 349 342 337 331 327 326 327 328 327 325 323 321 319 316 313 309 306 307 311 313 303 286 292 315 329 334 333 332 321 281 246 228 220 216 214 213 204 196 206 214 204 196 203 197 189 190 190 175 161 168 184 183 177 177 158 144 136 136 134 128 129 138 147 155 160 165 172 178 178 166 144 139 140 132
334 334 344 358 6 10 19 22 14 5 354 347 346 345 339 333 333 333 332 330 328 326 325 324 322 320 317 312 309 307 308 305 288 282 298 326 335 335 332 323 289 246 228 217 199 203 218 220 210 212 213 192 189 214 201 189 193 196 185 172 178 193 190 181 208 183 155 141 138 142 138 139 145 148 151 160 169 175 180 182 174 158 147 141 132
338 353 14 21 22 24 27 17 360 355 350 345 347 351 349 342 339 338 336 336 337 338 340 341 341 339 335 331 325 315 309 306 300 289 278 294 330 336 331 326 307 253 227 213 191 195 214 220 212 211 208 195 196 206 196 195 204 199 189 182 186 193 193 192 208 199 168 154 156 154 145 145 146 144 145 153 161 169 179 182 174 162 156 151 140
46 58 47 41 33 25 18 3 350 348 346 344 347 352 351 345 345 347 348 351 353 356 2 5 3 358 355 350 345 337 325 313 303 293 275 268 296 328 331 326 320 265 224 206 186 189 204 208 204 203 201 197 197 198 200 215 216 196 185 183 186 187 186 191 202 197 177 169 172 171 166 162 153 144 144 147 147 154 172 178 169 160 162 161 146
83 67 52 43 31 17 3 352 344 342 342 343 345 349 350 350 354 357 357 358 359 0 4 6 3 2 3 357 352 354 353 332 308 295 282 274 280 318 329 322 322 268 223 206 183 181 195 201 198 195 198 200 199 205 220 224 203 183 176 175 179 181 185 194 198 188 175 172 176 178 173 164 154 147 147 147 141 142 154 166 164 158 162 165 149
83 61 45 30 15 1 352 344 338 336 338 343 347 350 352 354 358 359 358 358 358 356 356 357 355 356 359 357 353 356 2 355 332 307 285 275 271 299 328 319 321 252 221 209 189 183 194 201 198 193 196 203 203 213 223 203 179 169 168 169 170 174 185 195 194 188 180 175 175 174 167 160 155 154 154 150 144 144 153 163 162 159 163 166 151
80 53 29 12 359 348 339 334 334 337 340 345 349 349 350 352 354 356 356 355 353 351 350 349 348 348 347 347 346 346 350 353 343 315 284 266 250 232 281 288 178 196 217 210 196 191 199 202 199 193 197 206 209 207 196 176 164 161 163 165 165 165 170 176 183 190 186 177 173 174 171 167 164 162 161 157 150 150 158 162 161 162 166 162 148
69 32 12 356 344 339 336 338 343 349 350 350 348 347 347 348 349 349 349 348 346 346 347 345 344 345 343 334 326 326 333 344 340 313 274 247 219 178 155 160 157 175 219 211 198 198 204 203 200 198 200 203 200 188 172 160 157 159 161 164 165 160 150 152 169 182 179 172 171 175 176 174 170 165 164 162 155 154 158 160 162 167 168 160 149
32 11 357 345 342 347 354 0 2 359 355 351 348 346 345 345 344 344 346 345 343 343 343 343 344 346 342 330 318 317 327 342 345 329 268 225 202 164 151 152 153 175 220 213 202 202 206 205 205 201 189 180 176 169 159 155 157 160 162 164 165 156 137 132 158 178 177 174 175 177 174 173 172 172 173 169 161 159 161 162 167 170 167 160 152
10 357 348 351 1 9 12 9 3 358 354 350 347 347 347 346 345 347 347 348 348 347 344 343 345 344 339 328 319 319 325 337 346 344 286 200 187 161 147 142 145 166 213 214 205 200 199 203 205 188 167 165 166 161 158 158 160 162 161 163 166 162 149 137 147 177 185 181 177 173 169 167 167 175 181 177 167 162 163 166 173 175 169 163 153
358 354 359 14 23 20 11 2 356 351 349 348 347 349 351 350 350 350 348 348 352 352 345 343 346 346 340 331 324 323 327 334 342 345 334 191 175 157 144 142 151 165 194 213 206 197 192 199 198 175 162 165 166 162 162 163 163 161 163 172 179 176 167 154 139 152 179 180 171 160 161 166 166 173 181 181 172 164 162 167 173 175 174 166 153
4 16 28 33 26 12 1 356 351 346 346 347 349 351 352 351 351 350 349 348 350 348 341 339 345 349 344 336 332 330 330 333 340 348 349 210 170 158 146 145 156 170 188 203 202 193 190 194 189 171 165 167 164 160 163 167 167 162 165 183 183 175 170 165 149 133 149 163 159 151 157 167 169 174 182 183 175 164 161 163 167 174 176 165 147
36 47 43 27 12 6 0 352 346 344 345 348 350 349 349 349 349 349 349 348 346 345 340 336 341 348 349 341 336 334 333 332 336 349 3 28 152 152 147 147 152 171 200 205 197 189 186 189 184 173 169 166 160 158 162 167 167 159 153 172 175 171 169 171 163 144 138 142 144 151 163 168 170 179 185 183 173 160 156 156 159 167 167 153 142
62 55 31 15 8 4 355 347 344 345 346 347 350 351 351 353 354 352 350 350 350 350 347 342 341 345 349 348 344 342 347 346 326 342 14 43 123 148 155 160 157 163 207 209 191 179 176 179 179 173 168 164 162 163 166 166 164 158 150 168 177 176 176 179 174 159 148 141 138 153 172 174 174 182 184 178 167 156 151 152 153 153 151 145 142
64 25 17 15 5 355 349 347 347 347 347 349 353 358 0 2 1 356 353 354 355 354 352 349 347 346 348 349 347 347 356 16 227 253 33 68 97 130 159 165 154 153 179 192 179 171 170 174 175 171 167 167 169 172 173 170 168 166 163 176 182 181 181 183 180 165 153 144 134 144 178 179 174 178 178 170 160 154 152 151 149 147 145 144 145
27 17 14 6 358 354 353 351 350 349 351 355 0 3 5 5 2 359 357 358 359 358 355 353 351 348 347 347 346 348 357 22 144 181 146 96 82 90 172 176 156 152 162 171 173 171 168 168 170 169 170 174 176 177 178 176 174 174 175 182 184 183 183 182 177 167 163 158 145 144 196 180 172 175 175 166 158 156 155 152 149 147 145 146 151
23 17 10 4 3 1 357 354 352 353 357 4 7 5 5 3 0 359 2 2 360 358 357 355 352 349 347 346 346 348 353 3 43 138 150 109 80 77 179 178 157 153 160 165 171 171 163 159 166 171 175 180 181 180 178 178 179 182 193 188 182 183 186 183 171 160 163 165 155 155 196 178 172 173 172 165 161 160 158 156 157 156 151 149 154
18 13 13 11 7 3 0 357 355 357 2 8 7 3 0 360 359 1 4 4 2 359 357 355 352 348 345 344 343 345 347 348 358 129 158 126 70 62 170 169 151 151 160 164 168 166 159 160 171 176 178 182 183 178 173 179 183 189 201 185 178 181 188 184 169 155 158 168 169 165 169 171 173 174 172 169 167 165 165 166 167 168 164 160 160
16 17 17 11 5 4 3 359 356 359 6 8 4 360 358 359 1 4 5 7 6 1 357 355 352 348 345 342 340 341 344 336 321 163 157 146 61 62 162 160 142 145 159 166 164 160 158 165 176 180 178 181 181 172 166 177 185 188 186 180 178 181 188 182 171 162 165 171 172 165 144 156 170 174 173 173 172 171 174 176 174 174 176 174 172
23 21 14 7 3 4 3 359 358 4 8 4 360 359 360 1 4 7 8 10 7 360 355 354 353 350 348 343 339 342 344 329 293 166 153 143 76 79 158 159 144 144 157 164 162 158 160 168 177 179 177 180 178 167 164 176 182 176 171 177 179 184 189 183 175 175 179 173 169 170 159 151 164 174 175 174 171 170 174 176 175 179 185 183 180
26 17 8 3 3 3 1 0 2 6 6 2 359 0 2 3 7 11 11 9 4 358 355 355 355 354 350 344 342 347 348 332 280 163 146 128 104 121 160 159 147 145 155 162 163 161 161 167 174 177 176 178 176 168 167 176 179 166 161 176 182 187 191 186 177 177 181 178 174 176 169 158 168 180 180 174 170 169 170 172 175 181 184 183 183
21 11 3 0 0 1 2 4 5 5 3 2 2 3 4 7 12 14 11 7 3 0 359 359 360 359 354 347 346 352 354 348 156 148 138 120 120 140 150 153 150 149 155 163 167 168 167 170 177 180 178 175 173 169 172 179 179 162 158 176 185 187 187 182 173 164 168 173 174 175 168 157 172 184 182 178 176 175 175 177 181 182 181 180 182
13 7 3 360 359 2 5 6 6 5 4 4 5 5 7 13 16 13 10 9 8 4 2 3 4 5 360 353 352 1 17 55 126 139 137 131 134 138 141 151 158 154 154 161 169 171 171 173 180 180 175 171 169 172 177 182 177 162 160 176 185 184 180 178 173 156 147 159 169 174 175 171 182 185 183 183 184 182 181 183 187 186 182 181 182
7 5 4 2 2 5 8 6 6 7 7 6 6 7 10 16 17 12 10 13 13 9 7 8 11 13 8 1 7 31 64 96 117 125 128 130 131 132 134 148 159 156 155 159 165 165 166 172 177 174 169 165 165 171 179 180 173 164 163 169 176 180 183 185 185 173 154 154 165 176 181 185 184 182 184 187 188 186 186 189 191 188 185 184 184
8 7 5 4 6 10 10 6 5 9 10 8 6 7 11 14 15 12 13 17 17 14 13 14 18 19 16 18 40 71 89 100 105 108 124 136 135 130 123 127 152 156 158 161 163 161 162 169 169 162 160 162 163 170 179 176 168 166 162 157 159 172 184 189 189 180 168 165 171 179 184 187 182 180 185 190 192 192 192 191 188 185 186 186 186
17 13 10 10 13 16 15 8 6 9 12 10 7 7 9 13 16 17 17 19 21 21 19 19 22 24 26 42 72 89 94 98 97 98 111 122 125 119 105 99 145 159 160 163 166 165 164 163 158 152 154 162 163 166 174 171 164 165 164 154 149 160 176 184 185 181 176 176 179 183 185 187 186 184 188 192 195 196 196 193 187 184 185 185 183
26 20 18 18 20 21 19 13 9 11 12 11 9 6 7 13 21 21 20 22 26 26 24 26 29 31 39 64 88 92 91 99 101 99 100 103 104 101 92 92 139 159 161 163 166 165 161 157 153 152 158 164 161 159 166 165 160 162 164 156 146 150 163 173 176 174 171 175 183 188 189 188 188 189 191 194 197 199 199 194 188 188 189 185 179
30 25 24 24 23 23 22 18 16 15 14 11 7 5 7 15 22 22 21 26 31 31 29 32 37 40 48 71 89 90 92 102 105 103 100 97 94 93 90 94 133 156 160 161 160 157 154 153 152 155 165 166 156 151 157 159 154 155 158 154 145 146 155 163 167 168 170 179 191 193 190 187 187 189 189 191 197 201 200 193 189 192 194 190 183